TimeAKDT,TemperatureF,Dew PointF,Humidity,Sea Level PressureIn,VisibilityMPH,Wind Direction,Wind SpeedMPH,Gust SpeedMPH,PrecipitationIn,Events,Conditions,WindDirDegrees,DateUTC
12:16 AM,64.4,53.6,68,30.05,10.0,Calm,Calm,-,N/A,,Scattered Clouds,0,2013-07-24 08:16:00
12:36 AM,64.4,53.6,68,30.05,10.0,Calm,Calm,-,N/A,,Clear,0,2013-07-24 08:36:00
12:56 AM,62.6,53.6,72,30.05,10.0,Calm,Calm,-,N/A,,Clear,0,2013-07-24 08:56:00
1:16 AM,62.6,53.6,72,30.05,10.0,Calm,Calm,-,N/A,,Partly Cloudy,0,2013-07-24 09:16:00
1:36 AM,62.6,51.8,68,30.05,10.0,Calm,Calm,-,N/A,,Clear,0,2013-07-24 09:36:00
1:56 AM,62.6,51.8,68,30.06,10.0,Calm,Calm,-,N/A,,Mostly Cloudy,0,2013-07-24 09:56:00
2:16 AM,60.8,51.8,72,30.06,10.0,Calm,Calm,-,N/A,,Overcast,0,2013-07-24 10:16:00
2:36 AM,60.8,51.8,72,30.07,10.0,Calm,Calm,-,N/A,,Overcast,0,2013-07-24 10:36:00
2:56 AM,60.8,51.8,72,30.07,10.0,Calm,Calm,-,N/A,,Overcast,0,2013-07-24 10:56:00
3:16 AM,60.8,53.6,77,30.07,10.0,Calm,Calm,-,N/A,,Overcast,0,2013-07-24 11:16:00
3:36 AM,60.8,53.6,77,30.07,10.0,Calm,Calm,-,N/A,,Overcast,0,2013-07-24 11:36:00
3:56 AM,60.8,53.6,77,30.07,10.0,Calm,Calm,-,N/A,,Overcast,0,2013-07-24 11:56:00
4:16 AM,60.8,53.6,77,30.07,10.0,Calm,Calm,-,N/A,,Overcast,0,2013-07-24 12:16:00
4:36 AM,60.8,53.6,77,30.07,10.0,Calm,Calm,-,N/A,,Overcast,0,2013-07-24 12:36:00
4:56 AM,60.8,53.6,77,30.07,10.0,Calm,Calm,-,N/A,,Overcast,0,2013-07-24 12:56:00
5:16 AM,59.0,53.6,82,30.07,10.0,Calm,Calm,-,N/A,,Overcast,0,2013-07-24 13:16:00
5:36 AM,59.0,53.6,82,30.07,10.0,SSW,4.6,-,N/A,,Overcast,210,2013-07-24 13:36:00
5:56 AM,57.2,53.6,88,30.07,10.0,SW,4.6,-,N/A,,Scattered Clouds,230,2013-07-24 13:56:00
6:16 AM,57.2,51.8,82,30.07,10.0,SW,3.5,-,N/A,,Clear,230,2013-07-24 14:16:00
6:36 AM,57.2,51.8,82,30.07,10.0,SW,4.6,-,N/A,,Clear,220,2013-07-24 14:36:00
6:56 AM,57.2,53.6,88,30.06,10.0,SSW,3.5,-,N/A,,Clear,200,2013-07-24 14:56:00
7:16 AM,55.4,51.8,88,30.06,10.0,SSW,3.5,-,N/A,,Clear,210,2013-07-24 15:16:00
7:36 AM,57.2,51.8,82,30.06,10.0,SSW,3.5,-,N/A,,Partly Cloudy,200,2013-07-24 15:36:00
7:56 AM,57.2,51.8,82,30.06,10.0,Calm,Calm,-,N/A,,Partly Cloudy,0,2013-07-24 15:56:00
8:16 AM,57.2,53.6,88,30.06,10.0,SSW,3.5,-,N/A,,Partly Cloudy,210,2013-07-24 16:16:00
8:36 AM,59.0,53.6,82,30.06,10.0,SSW,3.5,-,N/A,,Partly Cloudy,200,2013-07-24 16:36:00
8:56 AM,60.8,53.6,77,30.06,10.0,Calm,Calm,-,N/A,,Clear,0,2013-07-24 16:56:00
9:16 AM,60.8,53.6,77,30.06,10.0,SSW,3.5,-,N/A,,Partly Cloudy,200,2013-07-24 17:16:00
9:36 AM,62.6,53.6,72,30.06,10.0,Calm,Calm,-,N/A,,Scattered Clouds,0,2013-07-24 17:36:00
9:56 AM,62.6,53.6,72,30.06,10.0,Calm,Calm,-,N/A,,Mostly Cloudy,0,2013-07-24 17:56:00
10:16 AM,62.6,53.6,72,30.06,10.0,Calm,Calm,-,N/A,,Overcast,0,2013-07-24 18:16:00
10:36 AM,64.4,53.6,68,30.06,10.0,Calm,Calm,-,N/A,,Overcast,0,2013-07-24 18:36:00
10:56 AM,64.4,53.6,68,30.06,10.0,WSW,3.5,-,N/A,,Overcast,240,2013-07-24 18:56:00
11:16 AM,64.4,53.6,68,30.06,10.0,Calm,Calm,-,N/A,,Overcast,0,2013-07-24 19:16:00
11:36 AM,64.4,55.4,73,30.06,10.0,Calm,Calm,-,N/A,,Overcast,0,2013-07-24 19:36:00
11:56 AM,64.4,55.4,73,30.06,10.0,Calm,Calm,-,N/A,,Overcast,0,2013-07-24 19:56:00
12:16 PM,66.2,53.6,64,30.06,10.0,SW,5.8,-,N/A,,Overcast,220,2013-07-24 20:16:00
12:36 PM,66.2,55.4,68,30.06,10.0,SSW,4.6,-,N/A,,Overcast,210,2013-07-24 20:36:00
12:56 PM,66.2,55.4,68,30.05,10.0,SW,3.5,-,N/A,,Mostly Cloudy,220,2013-07-24 20:56:00
1:16 PM,66.2,55.4,68,30.05,10.0,SW,3.5,-,N/A,,Overcast,230,2013-07-24 21:16:00
1:36 PM,66.2,55.4,68,30.05,10.0,SW,4.6,-,N/A,,Overcast,230,2013-07-24 21:36:00
1:56 PM,66.2,55.4,68,30.05,10.0,Calm,Calm,-,N/A,,Overcast,0,2013-07-24 21:56:00
2:16 PM,66.2,55.4,68,30.05,10.0,Calm,Calm,-,N/A,,Overcast,0,2013-07-24 22:16:00
2:36 PM,66.2,55.4,68,30.05,10.0,Calm,Calm,-,N/A,,Overcast,0,2013-07-24 22:36:00
2:56 PM,66.2,55.4,68,30.05,10.0,Calm,Calm,-,N/A,,Overcast,0,2013-07-24 22:56:00
3:16 PM,66.2,55.4,68,30.05,10.0,Calm,Calm,-,N/A,,Overcast,0,2013-07-24 23:16:00
3:36 PM,66.2,55.4,68,30.05,10.0,Calm,Calm,-,N/A,,Overcast,0,2013-07-24 23:36:00
3:56 PM,66.2,55.4,68,30.05,10.0,Calm,Calm,-,N/A,,Overcast,0,2013-07-24 23:56:00
4:16 PM,66.2,55.4,68,30.05,10.0,WSW,3.5,-,N/A,,Overcast,240,2013-07-25 00:16:00
4:36 PM,66.2,55.4,68,30.05,10.0,West,3.5,-,N/A,,Overcast,260,2013-07-25 00:36:00
4:56 PM,66.2,55.4,68,30.05,10.0,West,3.5,-,N/A,,Overcast,280,2013-07-25 00:56:00
5:16 PM,66.2,55.4,68,30.04,10.0,West,3.5,-,N/A,,Overcast,280,2013-07-25 01:16:00
5:36 PM,66.2,53.6,64,30.04,10.0,Calm,Calm,-,N/A,,Overcast,0,2013-07-25 01:36:00
5:56 PM,68.0,55.4,64,30.03,10.0,West,3.5,-,N/A,,Overcast,270,2013-07-25 01:56:00
6:16 PM,69.8,55.4,60,30.03,10.0,SW,3.5,-,N/A,,Overcast,230,2013-07-25 02:16:00
6:36 PM,69.8,55.4,60,30.03,10.0,WSW,4.6,-,N/A,,Overcast,240,2013-07-25 02:36:00
6:56 PM,69.8,55.4,60,30.02,10.0,WSW,3.5,-,N/A,,Overcast,240,2013-07-25 02:56:00
7:16 PM,68.0,55.4,64,30.02,10.0,Calm,Calm,-,N/A,,Overcast,0,2013-07-25 03:16:00
7:36 PM,68.0,55.4,64,30.02,10.0,Calm,Calm,-,N/A,,Overcast,0,2013-07-25 03:36:00
7:56 PM,66.2,55.4,68,30.02,10.0,WSW,4.6,-,N/A,,Overcast,250,2013-07-25 03:56:00
8:16 PM,66.2,55.4,68,30.03,10.0,Calm,Calm,-,N/A,,Overcast,0,2013-07-25 04:16:00
8:36 PM,66.2,53.6,64,30.03,10.0,Calm,Calm,-,N/A,,Overcast,0,2013-07-25 04:36:00
8:56 PM,64.4,53.6,68,30.03,10.0,WNW,5.8,-,N/A,,Overcast,290,2013-07-25 04:56:00
9:16 PM,64.4,53.6,68,30.03,10.0,Calm,Calm,-,N/A,,Overcast,0,2013-07-25 05:16:00
9:36 PM,64.4,53.6,68,30.03,10.0,Calm,Calm,-,N/A,,Overcast,0,2013-07-25 05:36:00
9:56 PM,64.4,53.6,68,30.03,10.0,Calm,Calm,-,N/A,,Overcast,0,2013-07-25 05:56:00
10:16 PM,62.6,53.6,72,30.03,10.0,Calm,Calm,-,N/A,,Overcast,0,2013-07-25 06:16:00
10:36 PM,62.6,53.6,72,30.03,10.0,Calm,Calm,-,N/A,,Overcast,0,2013-07-25 06:36:00
10:56 PM,62.6,53.6,72,30.03,10.0,Calm,Calm,-,N/A,,Overcast,0,2013-07-25 06:56:00
11:16 PM,62.6,53.6,72,30.03,10.0,Calm,Calm,-,N/A,,Overcast,0,2013-07-25 07:16:00
11:36 PM,62.6,53.6,72,30.03,10.0,West,3.5,-,N/A,,Overcast,270,2013-07-25 07:36:00
11:56 PM,62.6,53.6,72,30.03,10.0,Calm,Calm,-,N/A,,Overcast,0,2013-07-25 07:56:00